Simultaneous Nadir Overpasses (SNOs) Predictions

Prediction of SNOs near US between AQUA and NPP Satellite Orbit:

Table of predicted SNOs near US for the next 10.0 days since TLE Epoch: 6/29/2019
Index Date (AQUA) Time (AQUA) AQUA Lat,Lon Date (NPP) Time (NPP) NPP Lat,Lon Distance(km) Time Diff (sec)
1 07/01/2019 08:35:03 20.00,-101.87 07/01/2019 08:26:43 18.15,-102.55 217.79 500
2 07/01/2019 10:11:57 27.17,-124.87 07/01/2019 10:05:36 27.35,-125.60 75.07 381
3 07/04/2019 07:18:43 49.92, -75.98 07/04/2019 07:20:25 50.34, -78.22 166.42 102
4 07/04/2019 08:57:36 49.93,-100.69 07/04/2019 09:01:52 50.50,-103.52 210.85 256
5 07/06/2019 18:16:52 49.96, -80.15 07/06/2019 18:10:42 49.66, -81.78 121.49 370
6 07/06/2019 19:55:45 49.95,-104.87 07/06/2019 19:52:10 49.55,-107.11 166.77 215
7 07/06/2019 21:30:56 36.71,-124.98 07/06/2019 21:29:50 36.23,-127.63 242.38 66




NCC Satellite Simultaneous Nadir Overpasses (SNOs) Prediction Service
